When you browse on this site, cookies collect data to enhance your experience and personalize the content and advertising you see.
Visit our Privacy Policy to learn more. By continuing to use the site, you agree to this use of cookies and data.
  • En España
  • Lista de países
  • Para 7 días
  • Temperatura del agua
  • El tiempo en el mapa
  • Informadores
  • user-avatar
    Iniciar sesión

    Tiempo cada hora Florianópolis

    Hoy, 30 Marzo, Lunes

    Tiempo Temperatura Precipitaciones Viento Presión Humedad
    00:00 +24°C° 0 mm 3 mps 762 mmHg 92%
    01:00 +24°C° 0 mm 2 mps 762 mmHg 93%
    02:00 +24°C° 0 mm 2 mps 762 mmHg 93%
    03:00 +24°C° 0 mm 2 mps 762 mmHg 92%
    04:00 +23°C° 0 mm 2 mps 761 mmHg 92%
    05:00 +23°C° 0 mm 2 mps 761 mmHg 92%
    06:00 +23°C° 0 mm 2 mps 761 mmHg 92%
    07:00 +25°C° 0 mm 2 mps 761 mmHg 83%
    08:00 +27°C° 0 mm 2 mps 762 mmHg 75%
    09:00 +28°C° 0 mm 2 mps 762 mmHg 66%
    10:00 +30°C° 0 mm 2 mps 762 mmHg 61%
    11:00 +32°C° 0 mm 2 mps 762 mmHg 55%
    12:00 +34°C° 0 mm 3 mps 762 mmHg 50%
    13:00 +33°C° 0.1 mm 3 mps 761 mmHg 57%
    14:00 +31°C° 0.1 mm 3 mps 761 mmHg 64%
    15:00 +31°C° 0.1 mm 3 mps 760 mmHg 70%
    16:00 +29°C° 0.3 mm 3 mps 760 mmHg 76%
    17:00 +28°C° 0.3 mm 2 mps 760 mmHg 81%
    18:00 +27°C° 0.3 mm 2 mps 760 mmHg 87%
    19:00 +26°C° 0.5 mm 2 mps 761 mmHg 88%
    20:00 +26°C° 0.5 mm 1 mps 761 mmHg 90%
    21:00 +25°C° 0.5 mm 1 mps 762 mmHg 91%
    22:00 +25°C° 0.2 mm 1 mps 762 mmHg 92%
    23:00 +24°C° 0.2 mm 1 mps 761 mmHg 92%

    Mañana, 31 Marzo, Martes

    Tiempo Temperatura Precipitaciones Viento Presión Humedad
    00:00 +24°C° 0.2 mm 2 mps 761 mmHg 92%
    01:00 +24°C° 0 mm 2 mps 761 mmHg 93%
    02:00 +24°C° 0 mm 1 mps 761 mmHg 93%
    03:00 +24°C° 0 mm 1 mps 761 mmHg 93%
    04:00 +23°C° 0 mm 1 mps 761 mmHg 93%
    05:00 +23°C° 0 mm 1 mps 761 mmHg 92%
    06:00 +23°C° 0 mm 1 mps 761 mmHg 92%
    07:00 +24°C° 0 mm 1 mps 761 mmHg 86%
    08:00 +26°C° 0 mm 1 mps 761 mmHg 80%
    09:00 +25°C° 0 mm 0 mps 762 mmHg 74%
    10:00 +28°C° 0 mm 1 mps 762 mmHg 71%
    11:00 +29°C° 0 mm 2 mps 761 mmHg 67%
    12:00 +30°C° 0 mm 2 mps 761 mmHg 63%
    13:00 +30°C° 0.2 mm 3 mps 761 mmHg 68%
    14:00 +29°C° 0.2 mm 3 mps 760 mmHg 72%
    15:00 +28°C° 0.2 mm 3 mps 760 mmHg 76%
    16:00 +27°C° 0.2 mm 3 mps 760 mmHg 80%
    17:00 +26°C° 0.2 mm 3 mps 760 mmHg 84%
    18:00 +26°C° 0.2 mm 3 mps 760 mmHg 87%
    19:00 +25°C° 0 mm 4 mps 761 mmHg 88%
    20:00 +25°C° 0 mm 4 mps 761 mmHg 89%
    21:00 +25°C° 0 mm 4 mps 762 mmHg 90%
    22:00 +23°C° 0 mm 4 mps 762 mmHg 91%
    23:00 +23°C° 0 mm 4 mps 762 mmHg 91%

    Pasado mañana, 1 Abril, Miércoles

    Tiempo Temperatura Precipitaciones Viento Presión Humedad
    00:00 +23°C° 0 mm 4 mps 762 mmHg 92%
    01:00 +22°C° 0.1 mm 3 mps 762 mmHg 92%
    02:00 +22°C° 0.1 mm 3 mps 762 mmHg 92%
    03:00 +22°C° 0.1 mm 3 mps 761 mmHg 92%
    04:00 +22°C° 0.1 mm 3 mps 762 mmHg 92%
    05:00 +23°C° 0.1 mm 2 mps 762 mmHg 92%
    06:00 +23°C° 0.1 mm 2 mps 762 mmHg 91%
    07:00 +24°C° 0 mm 2 mps 762 mmHg 86%
    08:00 +26°C° 0 mm 1 mps 762 mmHg 80%
    09:00 +27°C° 0 mm 1 mps 763 mmHg 75%
    10:00 +28°C° 0 mm 1 mps 763 mmHg 70%
    11:00 +29°C° 0 mm 2 mps 762 mmHg 65%
    12:00 +30°C° 0 mm 2 mps 762 mmHg 60%
    13:00 +30°C° 0.1 mm 2 mps 762 mmHg 63%
    14:00 +29°C° 0.1 mm 2 mps 761 mmHg 66%
    15:00 +29°C° 0.1 mm 2 mps 761 mmHg 69%
    16:00 +28°C° 0 mm 2 mps 761 mmHg 74%
    17:00 +27°C° 0 mm 2 mps 761 mmHg 79%
    18:00 +26°C° 0 mm 2 mps 761 mmHg 83%
    19:00 +26°C° 0.1 mm 2 mps 761 mmHg 86%
    20:00 +25°C° 0.1 mm 2 mps 762 mmHg 88%
    21:00 +25°C° 0.1 mm 2 mps 762 mmHg 91%
    22:00 +25°C° 0.2 mm 3 mps 762 mmHg 91%
    23:00 +25°C° 0.2 mm 3 mps 762 mmHg 91%

    2 Abril, Jueves

    Tiempo Temperatura Precipitaciones Viento Presión Humedad
    00:00 +25°C° 0.2 mm 3 mps 762 mmHg 92%
    01:00 +25°C° 0.2 mm 3 mps 761 mmHg 92%
    02:00 +23°C° 0.2 mm 4 mps 760 mmHg 92%
    03:00 +23°C° 0.2 mm 4 mps 760 mmHg 92%
    04:00 +23°C° 0.1 mm 4 mps 760 mmHg 92%
    05:00 +23°C° 0.1 mm 4 mps 760 mmHg 93%
    06:00 +23°C° 0.1 mm 4 mps 760 mmHg 93%
    07:00 +25°C° 0 mm 4 mps 759 mmHg 90%
    08:00 +26°C° 0 mm 4 mps 759 mmHg 87%
    09:00 +27°C° 0 mm 4 mps 759 mmHg 84%
    10:00 +28°C° 0 mm 5 mps 758 mmHg 77%
    11:00 +29°C° 0 mm 5 mps 758 mmHg 69%
    12:00 +30°C° 0 mm 5 mps 757 mmHg 61%
    13:00 +29°C° 0.7 mm 5 mps 757 mmHg 71%
    14:00 +27°C° 0.7 mm 4 mps 756 mmHg 80%
    15:00 +26°C° 0.7 mm 3 mps 756 mmHg 89%
    16:00 +26°C° 0.1 mm 3 mps 755 mmHg 89%
    17:00 +25°C° 0.1 mm 4 mps 755 mmHg 88%
    18:00 +25°C° 0.1 mm 4 mps 754 mmHg 88%
    19:00 +25°C° 0 mm 4 mps 754 mmHg 88%
    20:00 +25°C° 0 mm 4 mps 754 mmHg 87%
    21:00 +25°C° 0 mm 3 mps 754 mmHg 87%
    22:00 +25°C° 0 mm 3 mps 754 mmHg 87%
    23:00 +25°C° 0 mm 2 mps 754 mmHg 87%

    3 Abril, Viernes

    Tiempo Temperatura Precipitaciones Viento Presión Humedad
    00:00 +25°C° 0 mm 2 mps 754 mmHg 87%
    01:00 +24°C° 0.1 mm 2 mps 754 mmHg 85%
    02:00 +22°C° 0.1 mm 3 mps 754 mmHg 84%
    03:00 +22°C° 0.1 mm 4 mps 754 mmHg 82%
    04:00 +21°C° 0 mm 4 mps 754 mmHg 80%
    05:00 +20°C° 0 mm 3 mps 755 mmHg 79%
    06:00 +19°C° 0 mm 3 mps 755 mmHg 78%
    07:00 +20°C° 0 mm 3 mps 755 mmHg 69%
    08:00 +22°C° 0 mm 3 mps 756 mmHg 60%
    09:00 +24°C° 0 mm 2 mps 756 mmHg 52%
    10:00 +26°C° 0 mm 2 mps 756 mmHg 46%
    11:00 +27°C° 0 mm 2 mps 756 mmHg 40%
    12:00 +29°C° 0 mm 2 mps 756 mmHg 34%
    13:00 +29°C° 0 mm 3 mps 756 mmHg 36%
    14:00 +29°C° 0 mm 4 mps 756 mmHg 38%
    15:00 +29°C° 0 mm 5 mps 756 mmHg 40%
    16:00 +27°C° 0 mm 5 mps 756 mmHg 49%
    17:00 +26°C° 0 mm 5 mps 756 mmHg 57%
    18:00 +23°C° 0 mm 5 mps 756 mmHg 66%
    19:00 +22°C° 0 mm 5 mps 757 mmHg 69%
    20:00 +21°C° 0 mm 5 mps 757 mmHg 72%
    21:00 +20°C° 0 mm 5 mps 758 mmHg 75%
    22:00 +20°C° 0.1 mm 4 mps 758 mmHg 76%
    23:00 +20°C° 0.1 mm 3 mps 758 mmHg 77%

    4 Abril, Sábado

    Tiempo Temperatura Precipitaciones Viento Presión Humedad
    00:00 +20°C° 0.1 mm 3 mps 759 mmHg 79%
    01:00 +19°C° 0.1 mm 3 mps 759 mmHg 80%
    02:00 +19°C° 0.1 mm 3 mps 758 mmHg 82%
    03:00 +19°C° 0.1 mm 2 mps 758 mmHg 84%
    04:00 +19°C° 0 mm 2 mps 758 mmHg 84%
    05:00 +18°C° 0 mm 2 mps 759 mmHg 85%
    06:00 +18°C° 0 mm 2 mps 759 mmHg 85%
    07:00 +21°C° 0 mm 1 mps 759 mmHg 78%
    08:00 +23°C° 0 mm 1 mps 760 mmHg 70%
    09:00 +24°C° 0 mm 1 mps 760 mmHg 63%
    10:00 +26°C° 0 mm 1 mps 760 mmHg 59%
    11:00 +27°C° 0 mm 1 mps 760 mmHg 55%
    12:00 +28°C° 0 mm 2 mps 760 mmHg 51%
    13:00 +27°C° 0 mm 2 mps 760 mmHg 55%
    14:00 +27°C° 0 mm 3 mps 759 mmHg 59%
    15:00 +26°C° 0 mm 3 mps 759 mmHg 62%
    16:00 +25°C° 0 mm 3 mps 759 mmHg 67%
    17:00 +24°C° 0 mm 3 mps 759 mmHg 71%
    18:00 +24°C° 0 mm 2 mps 759 mmHg 75%
    19:00 +23°C° 0 mm 2 mps 759 mmHg 77%
    20:00 +23°C° 0 mm 2 mps 760 mmHg 78%
    21:00 +23°C° 0 mm 2 mps 760 mmHg 80%
    22:00 +23°C° 0 mm 2 mps 760 mmHg 82%
    23:00 +22°C° 0 mm 3 mps 761 mmHg 83%
    Mostrar más